Juan de Fuca Strait - central strait: Past 24 Hour Conditions

 

Sheringham Point

07:00 PM PDT 28 July 2014
This table is a summary of hourly weather conditions for the past 24 hours.
Date / Time
(PDT)
Wind(knots) Conditions Visibility(km) Pressure(kPa) Air tempC) Relative humidity(%) Dew pointC)
28 July 2014
19:00 WNW 20 N/A N/A 101.9 12 99 11
18:00 WNW 23 N/A N/A 101.9 12 99 12
17:00 WNW 24 N/A N/A 101.9 11 100 11
16:00 WNW 24 N/A N/A 101.9 11 98 11
15:00 WNW 20 N/A N/A 102.0 12 96 11
14:00 WNW 15 N/A N/A 102.0 12 94 11
13:00 WNW 14 N/A N/A 102.0 12 95 11
12:00 WNW 10 N/A N/A 102.0 13 92 11
11:00 WNW 15 N/A N/A 102.0 12 95 11
10:00 WNW 9 N/A N/A 102.0 11 98 11
9:00 WNW 6 N/A N/A 102.1 11 99 10
8:00 WNW 7 N/A N/A 102.1 10 98 10
7:00 WNW 4 N/A N/A 102.1 12 99 12
6:00 ESE 2 N/A N/A 102.0 11 99 11
5:00 calm N/A N/A 102.0 12 99 11
4:00 WNW 2 N/A N/A 102.0 12 99 11
3:00 WNW 7 N/A N/A 102.0 13 98 12
2:00 calm N/A N/A 102.0 13 95 12
1:00 WNW 4 N/A N/A 102.0 13 95 13
0:00 WNW 6 N/A N/A 102.0 14 94 13
27 July 2014
23:00 WNW 11 N/A N/A 102.0 14 94 13
22:00 WNW 14 N/A N/A 102.0 14 94 13
21:00 WNW 16 N/A N/A 102.0 14 95 13
20:00 WNW 16 N/A N/A 102.0 14 95 13
19:00 WNW 20 N/A N/A 102.0 14 95 13
 
Map of Pacific - Georgia Basin marine weather areas Tsawwassen Ferry Terminal Sentry Shoal - 46131 Halibut Bank - 46146 La Perouse Bank - 46206 Discovery Island Esquimalt Harbour Kelp Reefs Malahat Race Rocks Lightstation Saturna Island Sheringham Point University of Victoria Victoria Gonzales Victoria Int'l Airport Ballenas Islands Campbell River Airport Comox Airport Entrance Island Fanny Island Nanaimo Airport Sisters Islets Estevan Point Tofino Airport Grief Point Powell River Airport Sechelt Point Atkinson Sand Heads Lightstation Vancouver Harbour Vancouver Int'l Airport West Vancouver Port Alberni Howe Sound - Pam Rocks Squamish Airport